Terminal Aerodrome Forecast
Issued by NWS North Platte, NE

Home | Current Version | Previous Version | Text Only | Print | Product List | Glossary On
Versions: 1 2 3 4 5 6 7 8 9 10 11 12 13 14 15 16 17 18 19 20 21 22 23 24 25 26 27 28 29 30 31 32 33 34 35 36 37 38 39 40
000
FTUS43 KLBF 221353 AAK
TAFVTN
TAF AMD
KVTN 221353Z 2214/2312 05010KT 3/4SM BR OVC002
     FM221600 02012KT 4SM BR OVC004
     FM221800 36017G27KT P6SM OVC005
     FM230100 35016KT P6SM OVC008=

USA.gov is the U.S. government's official web portal to all federal, state and local government web resources and services.